RH
39 35 33 32 28 32 37 43 38 42 49 55 53 48 41 39 35 36 36 40 43 36 29 30 28 25 25 26 26 30 30 28 25 25 26 27 26 28 28 27 29 31 32
39 35 29 27 30 36 41 45 51 54 54 57 63 56 46 43 41 36 28 26 32 34 29 25 22 23 23 22 26 28 26 21 21 21 24 28 29 29 30 31 32 33 33
26 22 22 25 34 40 47 54 58 55 61 67 64 49 53 54 54 46 27 26 28 30 25 24 19 21 19 21 24 23 19 19 23 26 27 26 27 29 28 32 33 31 32
21 18 19 26 33 44 54 63 57 69 67 61 60 58 56 62 60 53 35 28 32 31 26 24 17 18 18 18 22 23 23 26 25 24 25 30 27 26 31 32 32 30 28
19 20 22 25 31 37 49 61 64 80 60 69 63 62 61 77 70 51 41 31 31 30 26 18 16 15 20 24 28 31 32 39 41 35 32 30 31 31 31 28 23 23 23
26 23 28 24 26 27 33 48 62 80 66 78 67 65 66 76 73 64 47 35 30 28 24 20 28 30 29 27 30 35 39 42 41 35 27 28 31 31 23 21 21 21 20
30 29 32 30 27 28 26 32 43 59 70 72 91 73 76 85 85 85 64 37 31 28 23 26 35 37 37 41 43 50 49 44 39 35 29 27 30 25 22 20 21 21 19
32 30 32 32 29 26 24 28 33 43 63 82 86 90 76 72 86 88 71 50 34 25 20 23 31 34 28 33 40 45 46 42 35 32 31 26 25 21 20 19 19 17 16
30 31 30 27 28 27 26 29 35 40 50 81 88 87 89 87 91 79 69 50 39 33 26 27 30 34 30 34 41 43 40 36 34 30 25 23 23 22 20 19 20 20 18
30 31 27 24 25 25 28 35 43 49 57 69 90 85 97 86 81 87 67 43 36 34 34 36 31 36 38 41 41 40 41 38 34 29 25 24 23 23 21 22 21 20 18
32 35 31 27 26 30 35 45 55 62 70 78 94 83 98 92 81 86 70 59 49 42 43 50 50 43 42 43 44 41 39 39 38 32 30 26 26 27 25 25 23 22 18
31 33 30 31 26 30 47 54 64 82 90 92 84 90 97 86 79 80 70 58 59 58 61 46 39 35 38 38 42 44 44 43 43 39 32 30 30 29 28 25 24 24 20
32 37 33 33 30 35 54 59 73 91 90 96 92 82 96 95 82 75 69 57 48 42 46 41 36 37 38 43 46 50 46 45 47 43 34 34 33 31 31 30 26 26 23
35 38 34 35 30 38 55 65 87 94 96 94 87 87 93 97 82 81 61 49 43 43 45 41 40 42 45 44 46 51 49 49 50 45 36 35 33 33 33 32 31 25 24
36 39 36 35 29 41 55 69 87 95 95 96 92 93 97 95 85 79 62 56 44 46 46 43 44 47 48 45 48 53 52 51 51 47 42 38 35 34 35 32 29 26 25
41 40 38 36 33 49 64 72 87 92 97 97 95 96 95 90 86 75 65 60 51 48 47 46 47 49 50 49 51 57 53 55 52 52 47 43 39 36 33 31 29 27 27
38 40 40 37 42 55 70 74 86 93 92 98 98 95 95 90 77 71 68 62 58 52 52 51 51 54 52 54 56 61 57 59 56 54 51 46 43 38 34 32 31 29 28
36 38 40 39 52 58 68 77 83 91 93 92 99 98 93 86 72 75 69 73 63 61 59 58 57 58 60 58 57 58 61 58 59 59 56 54 49 42 37 33 32 29 28
37 37 37 38 54 61 64 68 76 80 84 86 90 95 94 89 84 87 75 79 76 70 69 65 65 61 63 62 60 59 64 61 62 64 62 58 54 50 44 37 33 32 32
37 34 33 39 54 59 64 66 66 68 76 79 81 88 90 91 85 84 86 77 82 75 74 73 69 70 67 65 64 65 67 67 64 65 66 63 58 53 51 45 40 39 40
38 33 28 36 55 59 66 69 70 71 71 74 77 80 87 87 90 91 89 85 78 80 77 77 81 78 76 75 72 71 68 71 74 73 68 67 64 61 54 46 41 40 41
38 30 27 35 49 58 59 61 65 68 71 80 81 80 83 87 89 93 92 86 85 89 82 84 86 88 81 77 72 73 72 75 75 76 77 72 69 64 61 53 47 48 49
38 28 27 34 42 55 61 62 64 68 74 80 88 90 91 91 92 95 94 89 87 92 91 93 94 91 79 77 78 77 77 79 78 78 76 75 71 69 66 63 60 56 56
35 28 28 33 38 47 57 64 69 69 75 78 89 97 94 95 95 96 97 92 90 94 98 95 95 93 85 86 85 86 84 84 81 80 78 77 73 70 72 69 64 61 63
34 26 26 32 37 42 50 56 63 70 75 82 91 97 100 96 97 96 97 94 93 92 94 93 92 91 92 92 94 88 88 89 83 80 77 75 75 72 73 74 72 71 75
33 26 26 32 35 39 46 57 61 74 83 82 91 95 99 98 98 98 98 96 95 97 94 93 95 94 94 94 91 91 92 87 83 78 77 75 70 71 73 78 80 83 83